This demonstration page uses our WeatherBlox Daily Observations layout. Learn more.

Left ArrowRight Arrow

Hourly Observations for October 27, 2022

Temp ( °F °C ) Dew Point ( °F °C ) Humidity (%) Winds ( mph kmh ) Pressure ( in mb ) Visibility ( mi km ) Precip ( " mm )
12:56 am 00:56 Clear 47 8.3 33 0.6 58 58 SSE 20 31 29.95 1014 10 16 0.00 0.00
1:56 am 01:56 Clear 48 8.9 33 0.6 56 56 SSE 16 26 29.94 1014 10 16 0.00 0.00
2:56 am 02:56 Mostly Cloudy 49 9.4 33 0.6 54 54 SSE 21 33 29.93 1014 10 16 0.00 0.00
3:56 am 03:56 Cloudy with Light Rain 48 8.9 35 1.7 61 61 S 16 26 29.96 1015 10 16 0.01 0.13
4:56 am 04:56 Cloudy with Rain 45 7.2 39 3.9 80 80 SE 5 7 29.97 1015 10 16 0.01 0.25
5:56 am 05:56 Cloudy with Light Rain 44 6.7 39 3.9 82 82 E 13 20 29.96 1014 10 16 0.08 2.03
6:56 am 06:56 Cloudy 44 6.7 38 3.3 79 79 ESE 15 24 29.95 1014 10 16 0.01 0.13
7:56 am 07:56 Cloudy 45 7.2 38 3.3 76 76 ESE 14 22 29.95 1014 10 16 0.00 0.00
8:56 am 08:56 Cloudy with Light Rain 45 7.2 38 3.3 76 76 E 12 19 29.97 1015 10 16 0.01 0.13
9:56 am 09:56 Cloudy 46 7.8 39 3.9 76 76 ESE 14 22 29.99 1016 10 16 0.01 0.25
10:56 am 10:56 Cloudy with Light Rain 46 7.8 40 4.4 79 79 E 12 19 30.00 1016 10 16 0.01 0.13
11:56 am 11:56 Mostly Cloudy with Light Rain 47 8.3 42 5.6 83 83 E 12 19 30.00 1016 10 16 0.01 0.13
12:56 pm 12:56 Mostly Sunny 53 11.7 42 5.6 66 66 ESE 12 19 29.98 1015 10 16 0.01 0.13
1:56 pm 13:56 Cloudy 56 13.3 40 4.4 55 55 ESE 15 24 29.97 1015 10 16 0.00 0.00
2:56 pm 14:56 Cloudy 58 14.4 38 3.3 47 47 SSE 15 24 29.96 1015 10 16 0.01 0.13
3:56 pm 15:56 Cloudy 58 14.4 40 4.4 51 51 E 7 11 29.98 1015 10 16 0.00 0.00
4:56 pm 16:56 Cloudy 57 13.9 40 4.4 53 53 SE 10 17 30.01 1016 10 16 0.00 0.00
5:56 pm 17:56 Cloudy 55 12.8 40 4.4 57 57 E 8 13 30.05 1018 10 16 0.00 0.00
6:56 pm 18:56 Cloudy with Light Rain 49 9.4 44 6.7 83 83 ENE 10 17 30.09 1019 10 16 0.01 0.13
7:56 pm 19:56 Cloudy with Light Rain 48 8.9 46 7.8 93 93 SE 5 7 30.14 1021 10 16 0.01 0.13
8:56 pm 20:56 Cloudy with Light Rain 48 8.9 47 8.3 96 96 Calm 30.18 1022 9 14 0.06 1.52
9:10 pm 21:10 Cloudy with Rain 48 9 46 8 93 93 ENE 3 6 30.19 1022 8 13 0.02 0.51
9:56 pm 21:56 Cloudy with Light Rain 47 8.3 47 8.3 100 100 ESE 6 9 30.20 1023 8 13 0.08 2.03
10:56 pm 22:56 Cloudy with Light Rain 47 8.3 46 7.8 97 97 SE 6 9 30.23 1024 5 8 0.04 1.02
11:56 pm 23:56 Cloudy with Light Rain 47 8.3 46 7.8 97 97 SSE 7 11 30.24 1024 10 16 0.02 0.51

Powered by AerisWeather